This is the latest recevied weather packets stored in our database for station/object N7CW. If no packets are shown the sender has not sent any weather packets the latest 10 day(s).
| Time | Temp. | Humidity | Pressure | Rain* | Wind** | Luminosity | Snow |
|---|---|---|---|---|---|---|---|
| 1777772705 | 19.44° C | 29% | 1017.2 hPa | 0 mm | - | 23 W/m² | - |
| 1777772403 | 19.44° C | 29% | 1017.3 hPa | 0 mm | - | 30 W/m² | - |
| 1777772100 | 19.44° C | 29% | 1017.3 hPa | 0 mm | - | 37 W/m² | - |
| 1777771797 | 19.44° C | 29% | 1017.3 hPa | 0 mm | - | 44 W/m² | - |
| 1777771495 | 19.44° C | 29% | 1017.3 hPa | 0 mm | - | 49 W/m² | - |
| 1777771190 | 19.44° C | 29% | 1017.3 hPa | 0 mm | - | 53 W/m² | - |
| 1777770888 | 20° C | 29% | 1017.3 hPa | 0 mm | - | 59 W/m² | - |
| 1777770585 | 20° C | 29% | 1017.4 hPa | 0 mm | - | 67 W/m² | - |
| 1777770282 | 20° C | 29% | 1017.3 hPa | 0 mm | - | 68 W/m² | - |
| 1777769979 | 20° C | 29% | 1017.3 hPa | 0 mm | - | 61 W/m² | - |
| 1777769677 | 20° C | 28% | 1017.3 hPa | 0 mm | - | 67 W/m² | - |
| 1777769373 | 20° C | 28% | 1017.4 hPa | 0 mm | - | 78 W/m² | - |
| 1777769070 | 20° C | 28% | 1017.4 hPa | 0 mm | - | 74 W/m² | - |
| 1777768767 | 20° C | 28% | 1017.2 hPa | 0 mm | - | 73 W/m² | - |
| 1777768464 | 20.56° C | 28% | 1017.3 hPa | 0 mm | - | 73 W/m² | - |
| 1777768161 | 20.56° C | 27% | 1017.2 hPa | 0 mm | - | 84 W/m² | - |
| 1777767858 | 21.11° C | 27% | 1017.4 hPa | 0 mm | - | 108 W/m² | - |
| 1777767555 | 21.67° C | 27% | 1017.2 hPa | 0 mm | - | 262 W/m² | - |
| 1777767251 | 21.11° C | 26% | 1017.4 hPa | 0 mm | - | 256 W/m² | - |
| 1777766949 | 20.56° C | 27% | 1017.4 hPa | 0 mm | - | 143 W/m² | - |
| 1777766646 | 21.11° C | 26% | 1017.2 hPa | 0 mm | - | 115 W/m² | - |
| 1777766343 | 20.56° C | 27% | 1017.4 hPa | 0 mm | - | 118 W/m² | - |
| 1777766040 | 20.56° C | 26% | 1017.2 hPa | 0 mm | - | 122 W/m² | - |
| 1777765737 | 20.56° C | 27% | 1017.3 hPa | 0 mm | - | 131 W/m² | - |
| 1777765433 | 20.56° C | 26% | 1017.3 hPa | 0 mm | - | 138 W/m² | - |
* Rain latest hour (hover to see other rain measurements)
** Current wind speed in m/s (hover to see current wind gust speed)